Weather History for CWWB - October, 2013

Change the Weather History Date:

Wednesday, October 30, 2013

  Actual Average Record
Temperature  
Mean Temperature 42 °F -  
Max Temperature 44 °F - - ()
Min Temperature 40 °F - - ()
Degree Days  
Heating Degree Days 23    
Moisture  
Dew Point 39 °F    
Average Humidity 85    
Maximum Humidity 93    
Minimum Humidity 75    
Precipitation  
Precipitation 0.00 in - - ()
Sea Level Pressure  
Sea Level Pressure 30.21 in    
Wind  
Wind Speed 5 mph ()    
Max Wind Speed 12 mph    
Max Gust Speed -    
T = Trace of Precipitation, MM = Missing Value Source: Averaged Metar Reports

Daily Weather History Graph

Daily Weather History Graph

Search for Another Location

Airport or City:

Trip Planner

Search our weather history database for the weather conditions in past years. The results will help you decide how hot, cold, wet, or windy it might be!

Date:

Astronomy

Oct. 30, 2013 Rise Set
Actual Time 7:51 AM EDT 6:12 PM EDT
Civil Twilight 7:22 AM EDT 6:42 PM EDT
Nautical Twilight 6:48 AM EDT 7:16 PM EDT
Astronomical Twilight 6:15 AM EDT 7:49 PM EDT
Moon 3:32 AM EDT (10/30) 4:03 PM EDT (10/30)
Length of Visible Light 11h 20m
Length of Day
10h 21m
Waning Crescent, 17% of the Moon is Illuminated
Oct 30
Waning Crescent
Nov 3
New
Nov 10
First Quarter
Nov 17
Full
Nov 25
Last Quarter

Hourly Weather History & Observations

Time (EDT) Temp. Windchill Dew Point Humidity Pressure Visibility Wind Dir Wind Speed Gust Speed Precip Events Conditions
12:00 AM 42.4 °F 40.7 °F 34.9 °F 75% 30.30 in - SE 3.5 mph - N/A   Unknown
1:00 AM 41.9 °F 40.0 °F 35.8 °F 79% 30.28 in - North 3.5 mph - N/A   Unknown
2:00 AM 42 °F - 37 °F 76% 30.26 in - NNW 3.5 mph - -  
2:00 AM 41.9 °F 40.0 °F 37.0 °F 83% 30.26 in - NNW 3.5 mph - N/A   Unknown
3:00 AM 41.5 °F - 36.3 °F 82% 30.26 in - NW 2.3 mph - N/A   Unknown
4:00 AM 41.0 °F 39.0 °F 36.0 °F 82% 30.25 in - NNE 3.5 mph - N/A   Unknown
5:00 AM 41.2 °F 36.6 °F 35.6 °F 81% 30.24 in - NNW 6.9 mph - N/A   Unknown
6:00 AM 40.1 °F 36.9 °F 35.1 °F 82% 30.24 in - NNW 4.6 mph - N/A   Unknown
7:00 AM 40.3 °F 35.5 °F 35.8 °F 84% 30.24 in - NNW 6.9 mph - N/A   Unknown
8:00 AM 41 °F - 37 °F 80% 30.24 in - NNW 5.8 mph - -  
8:00 AM 41.0 °F 37.1 °F 36.9 °F 85% 30.24 in - NNW 5.8 mph - N/A   Unknown
9:00 AM 41.4 °F 36.8 °F 37.2 °F 85% 30.25 in - North 6.9 mph - N/A   Unknown
10:00 AM 43.2 °F 39.0 °F 38.8 °F 85% 30.26 in - NNE 6.9 mph - N/A   Unknown
11:00 AM 42.4 °F 36.5 °F 38.8 °F 87% 30.25 in - NNE 10.4 mph - N/A   Unknown
12:00 PM 42.6 °F 36.8 °F 39.2 °F 88% 30.25 in - NNE 10.4 mph - N/A   Unknown
1:00 PM 43.2 °F 37.4 °F 38.8 °F 85% 30.23 in - NNE 10.4 mph - N/A   Unknown
2:00 PM 43 °F - 39 °F 82% 30.19 in - NE 11.5 mph - -  
2:00 PM 43.3 °F 37.2 °F 39.4 °F 86% 30.19 in - NE 11.5 mph - N/A   Unknown
3:00 PM 43.5 °F 40.1 °F 40.5 °F 89% 30.18 in - NE 5.8 mph - N/A   Unknown
4:00 PM 44.2 °F 40.3 °F 41.0 °F 88% 30.16 in - NE 6.9 mph - N/A   Unknown
5:00 PM 43.9 °F 41.3 °F 41.4 °F 91% 30.17 in - NE 4.6 mph - N/A   Unknown
6:00 PM 44.4 °F 42.9 °F 41.5 °F 90% 30.15 in - NE 3.5 mph - N/A   Unknown
7:00 PM 43.5 °F 39.4 °F 41.5 °F 93% 30.16 in - NNE 6.9 mph - N/A   Unknown
8:00 PM 43 °F - 41 °F 89% 30.16 in - North 3.5 mph - -  
8:00 PM 43.3 °F 41.7 °F 40.8 °F 91% 30.16 in - North 3.5 mph - N/A   Unknown
9:00 PM 43.7 °F 40.3 °F 41.2 °F 91% 30.14 in - North 5.8 mph - N/A   Unknown
10:00 PM 43.9 °F 40.5 °F 41.0 °F 90% 30.14 in - NNW 5.8 mph - N/A   Unknown
11:00 PM 44.4 °F - 41.4 °F 89% 30.11 in - West 1.2 mph - N/A   Unknown